Weather reports worldwide

Advertisment
Wick Airport (AWS), United Kingdom (3075): temperature & dewpoint: 11.11.2018 03:00:00 - 17.11.2018 03:00:00 (GMT)Wick Airport (AWS), United Kingdom (3075): temperature -20cm: 11.11.2018 03:00:00 - 17.11.2018 03:00:00 (GMT)Wick Airport (AWS), United Kingdom (3075): wind speed & gusts: 11.11.2018 03:00:00 - 17.11.2018 03:00:00 (GMT)Wick Airport (AWS), United Kingdom (3075): wind direction: 11.11.2018 03:00:00 - 17.11.2018 03:00:00 (GMT)Wick Airport (AWS), United Kingdom (3075): reduced air pressure: 11.11.2018 03:00:00 - 17.11.2018 03:00:00 (GMT)Wick Airport (AWS), United Kingdom (3075): visibility: 11.11.2018 03:00:00 - 17.11.2018 03:00:00 (GMT)Wick Airport (AWS), United Kingdom (3075): precipitation: 11.11.2018 03:00:00 - 17.11.2018 03:00:00 (GMT)
Date & Time tt [°C] td [°C] tt -20cm [°C] ff [km/h] ff [kn] fx [km/h] fx [kn] dd ppp [hPa] vv [km] rr [mm]
17.11.2018 03:00:00 10,1 8,7 - 26 14 - - SE 1029,0 18 0,0
17.11.2018 02:00:00 10,5 9,4 - 22 12 - - SE 1028,8 11 0,0
17.11.2018 01:00:00 10,5 9,8 - 22 12 - - SE 1028,5 6 0,0
17.11.2018 00:00:00 10,2 9,8 - 24 13 - - SE 1028,0 5 0,0
16.11.2018 23:00:00 9,6 9,5 - 28 15 - - SE 1027,7 5 0,0
16.11.2018 22:00:00 9,7 9,6 - 28 15 - - SE 1027,0 3,8 0,0
16.11.2018 21:00:00 9,7 9,7 - 21 11 - - SE 1026,6 3,0 0,0
16.11.2018 20:00:00 10,2 9,9 - 21 11 - - SE 1026,3 4,1 0,0
16.11.2018 19:00:00 10,2 9,8 - 18 10 - - SE 1025,9 5 0,0
16.11.2018 18:00:00 10,4 9,8 - 13 7 - - ESE 1025,5 7 0,0
16.11.2018 17:00:00 9,5 9,0 - 11 6 - - SE 1024,9 8 0,0
16.11.2018 16:00:00 9,6 8,5 - 9 5 - - ESE 1024,4 10 0,0
16.11.2018 15:00:00 10,6 8,4 - 13 7 - - SSE 1023,9 25 0,0
16.11.2018 14:00:00 11,0 7,7 - 21 11 - - SSE 1023,8 29 0,0
16.11.2018 13:00:00 11,3 7,0 - 13 7 - - S 1023,7 29 0,0
16.11.2018 12:00:00 10,5 6,5 - 18 10 - - S 1023,4 20 0,0
16.11.2018 11:00:00 9,9 6,3 - 21 11 - - S 1023,1 40 0,0
16.11.2018 10:00:00 9,9 6,5 - 18 10 - - S 1022,7 30 0,0
16.11.2018 09:00:00 9,0 6,2 8,5 13 7 - - S 1022,2 19 0,0
16.11.2018 08:00:00 8,4 5,8 - 16 9 - - S 1021,4 30 0,0
16.11.2018 07:00:00 7,8 5,5 - 13 7 - - S 1020,8 30 0,0
16.11.2018 06:00:00 8,1 5,8 - 15 8 - - S 1019,8 45 0,0
16.11.2018 05:00:00 8,2 5,8 - 16 9 - - S 1019,0 35 0,0
16.11.2018 04:00:00 8,8 6,2 - 18 10 - - S 1017,9 40 0,0
16.11.2018 03:00:00 9,1 6,9 - 22 12 - - S 1017,4 25 0,0
16.11.2018 02:00:00 9,2 7,0 - 21 11 - - S 1016,7 25 0,0
16.11.2018 01:00:00 9,0 7,1 - 22 12 - - S 1015,9 35 0,0
16.11.2018 00:00:00 9,3 7,0 - 18 10 - - S 1015,0 40 0,0
15.11.2018 23:00:00 9,9 7,5 - 31 17 - - S 1013,1 45 0,0
15.11.2018 22:00:00 10,2 7,7 - 24 13 - - S 1012,4 29 0,0
15.11.2018 21:00:00 10,8 6,4 - 18 10 - - SSW 1011,1 35 0,0
15.11.2018 20:00:00 10,7 7,6 - 29 16 54 29 SW 1009,9 45 0,0
15.11.2018 19:00:00 11,1 7,9 - 29 16 55 30 SSE 1008,1 15 0,0
15.11.2018 18:00:00 11,0 7,3 - 29 16 55 30 SSE 1007,4 15 0,0
15.11.2018 17:00:00 11,7 7,5 - 41 22 68 37 SSE 1007,1 14 0,0
15.11.2018 16:00:00 11,3 8,4 - 35 19 54 29 SSE 1007,2 14 0,0
15.11.2018 15:00:00 11,5 9,1 - 29 16 57 31 SSE 1007,2 12 0,0
15.11.2018 14:00:00 11,6 9,6 - 37 20 55 30 SE 1007,4 14 0,0
15.11.2018 13:00:00 12,2 9,7 - 31 17 50 27 SSE 1008,4 17 0,0
15.11.2018 12:00:00 12,1 9,9 - 26 14 - - SE 1009,1 16 0,0
15.11.2018 11:00:00 11,9 10,0 - 24 13 - - SSE 1009,6 12 0,0
15.11.2018 10:00:00 11,8 10,0 - 24 13 - - SSE 1010,1 24 0,0
15.11.2018 09:00:00 11,4 10,0 8,2 13 7 - - SSE 1009,8 17 0,0
15.11.2018 08:00:00 11,2 9,6 - 9 5 - - SE 1010,0 20 0,0
15.11.2018 07:00:00 12,2 10,2 - 13 7 - - S 1009,4 22 0,0
15.11.2018 06:00:00 12,1 9,7 - 26 14 - - S 1009,0 28 0,0
15.11.2018 05:00:00 12,4 9,7 - - - 46 25 - 1008,4 30 0,0
15.11.2018 04:00:00 12,8 9,8 - 28 15 57 31 S 1008,0 30 0,0
15.11.2018 03:00:00 13,6 9,9 - 28 15 50 27 S 1007,7 35 0,0
15.11.2018 02:00:00 13,4 10,0 - 35 19 50 27 SSE 1007,3 23 0,0
15.11.2018 01:00:00 12,9 10,3 - 28 15 48 26 S 1007,3 21 0,0
15.11.2018 00:00:00 13,4 10,3 - 21 11 - - S 1007,1 29 0,0
14.11.2018 23:00:00 13,0 10,3 - 31 17 - - S 1006,8 22 0,0
14.11.2018 22:00:00 13,4 10,5 - 31 17 46 25 SSE 1006,5 24 0,0
14.11.2018 21:00:00 12,9 10,5 - 29 16 - - S 1006,1 23 0,0
14.11.2018 20:00:00 13,2 10,6 - 34 18 46 25 S 1005,5 40 0,0
14.11.2018 19:00:00 13,4 10,8 - 24 13 - - S 1005,3 50 0,0
14.11.2018 18:00:00 12,9 11,0 - 21 11 - - S 1005,0 45 0,0
14.11.2018 17:00:00 12,6 10,9 - 26 14 - - S 1004,9 40 0,0
14.11.2018 16:00:00 12,3 10,5 - 21 11 - - S 1004,7 30 0,0
14.11.2018 15:00:00 11,6 10,3 - 22 12 - - S 1004,1 22 0,0
14.11.2018 14:00:00 10,8 10,4 - 21 11 - - SSE 1004,5 16 0,2
14.11.2018 13:00:00 10,3 10,0 - 13 7 - - SSE 1004,4 8 1,0
14.11.2018 12:00:00 10,2 9,8 - 18 10 - - SSE 1004,9 11 0,4
14.11.2018 11:00:00 10,2 9,6 - 24 13 - - SSE 1005,1 11 0,2
14.11.2018 10:00:00 10,1 9,6 - 24 13 - - SSE 1005,3 6 0,8
14.11.2018 09:00:00 10,3 9,5 7,7 18 10 - - SSE 1005,6 12 1,0
14.11.2018 08:00:00 10,5 9,2 - 24 13 - - SSE 1005,7 8 0,4
14.11.2018 07:00:00 10,6 8,9 - 28 15 - - SSE 1005,4 14 0,0
14.11.2018 06:00:00 10,6 8,7 - 24 13 - - SSE 1005,6 17 0,0
14.11.2018 05:00:00 10,5 8,4 - 24 13 - - SSE 1005,7 19 0,0
14.11.2018 04:00:00 10,8 8,2 - 24 13 - - SSE 1006,4 24 0,0
14.11.2018 03:00:00 10,1 8,1 - 28 15 - - SSE 1006,7 25 0,0
14.11.2018 02:00:00 9,8 7,5 - 26 14 50 27 SSE 1007,3 22 0,2
14.11.2018 01:00:00 9,5 7,0 - 28 15 - - SSE 1007,6 13 0,2
14.11.2018 00:00:00 9,0 6,9 - 29 16 52 28 SSE 1008,0 17 0,6
13.11.2018 23:00:00 9,8 5,4 - 34 18 54 29 SSE 1008,4 30 0,0
13.11.2018 22:00:00 9,7 5,7 - 28 15 46 25 SSE 1008,6 35 0,0
13.11.2018 21:00:00 9,5 5,4 - 22 12 - - SSE 1008,9 30 0,0
13.11.2018 20:00:00 8,9 6,1 - 18 10 - - S 1009,6 30 0,0
13.11.2018 19:00:00 8,5 6,5 - 15 8 - - S 1010,2 35 0,0
13.11.2018 18:00:00 8,0 5,1 - 11 6 - - S 1010,0 50 0,0
13.11.2018 17:00:00 8,0 4,6 - 11 6 - - SSW 1010,0 45 0,0
13.11.2018 16:00:00 8,6 5,9 - 8 4 - - SSW 1009,3 50 0,0
13.11.2018 15:00:00 9,4 7,0 - 15 8 - - SSW 1008,6 50 0,0
13.11.2018 14:00:00 10,0 7,4 - 16 9 - - SW 1007,8 7 0,0
13.11.2018 13:00:00 10,5 7,3 - 15 8 - - SW 1006,8 45 0,0
13.11.2018 12:00:00 10,0 7,2 - 16 9 - - SW 1006,0 45 0,0
13.11.2018 11:00:00 10,3 6,9 - 11 6 - - SW 1005,1 40 0,0
13.11.2018 10:00:00 8,5 6,1 - 8 4 - - SW 1004,1 35 0,0
13.11.2018 09:00:00 6,6 5,5 7,9 5 3 - - WSW 1003,4 50 0,0
13.11.2018 08:00:00 6,1 5,2 - 9 5 - - W 1002,4 50 0,0
13.11.2018 07:00:00 6,6 5,4 - 4 2 - - WSW 1001,2 45 0,0
13.11.2018 06:00:00 6,5 5,5 - 8 4 - - WSW 1000,6 50 0,0
13.11.2018 05:00:00 7,0 6,0 - 5 3 - - SSW 999,9 40 0,0
13.11.2018 04:00:00 7,0 5,7 - 5 3 - - SW 999,4 45 0,0
13.11.2018 03:00:00 6,9 5,9 - 8 4 - - S 998,9 50 0,0
13.11.2018 02:00:00 5,9 5,0 - 5 3 - - WSW 998,8 19 0,0
13.11.2018 01:00:00 8,9 7,0 - 13 7 - - S 998,3 29 0,0
13.11.2018 00:00:00 9,2 7,4 - 15 8 52 28 S 998,2 30 0,0
12.11.2018 23:00:00 9,2 7,7 - 13 7 - - S 998,1 22 0,2
12.11.2018 22:00:00 9,3 8,0 - 11 6 - - S 998,0 7 0,0
12.11.2018 21:00:00 9,9 7,8 - 21 11 - - S 998,1 21 0,0
12.11.2018 20:00:00 10,0 7,8 - 22 12 - - SSE 998,0 23 0,0
12.11.2018 19:00:00 10,1 7,5 - 22 12 - - SSE 997,8 21 0,0
12.11.2018 18:00:00 10,4 7,5 - 22 12 - - SSE 997,7 22 0,0
12.11.2018 17:00:00 10,3 7,8 - 18 10 - - SSE 997,5 20 0,0
12.11.2018 16:00:00 10,4 7,7 - 22 12 - - SSE 997,1 21 0,0
12.11.2018 15:00:00 10,2 8,0 - 21 11 - - SSE 997,0 14 0,0
12.11.2018 14:00:00 10,4 8,0 - 21 11 - - SSE 996,9 15 0,0
12.11.2018 13:00:00 10,5 7,8 - 24 13 - - SSE 997,0 13 0,0
12.11.2018 12:00:00 10,7 7,4 - 22 12 - - SSE 997,0 16 0,0
12.11.2018 11:00:00 10,5 7,3 - 28 15 - - SSE 996,7 20 0,0
12.11.2018 10:00:00 10,2 7,3 - 22 12 - - SSE 996,4 17 0,0
12.11.2018 09:00:00 9,4 7,2 7,7 15 8 - - S 996,4 19 0,0
12.11.2018 08:00:00 8,9 6,8 - 18 10 - - SSE 996,0 29 0,0
12.11.2018 07:00:00 8,9 6,7 - 21 11 - - SSE 995,8 28 0,0
12.11.2018 06:00:00 8,8 6,4 - 21 11 - - SSE 995,4 26 0,0
12.11.2018 05:00:00 8,8 6,3 - - - - - - 995,3 35 0,0
12.11.2018 04:00:00 8,7 6,1 - 21 11 - - SSE 994,8 40 0,0
12.11.2018 03:00:00 8,5 5,1 - 18 10 - - SSE 994,9 40 0,0
12.11.2018 02:00:00 8,2 4,6 - 18 10 - - SSE 995,1 50 0,0
12.11.2018 01:00:00 8,0 4,8 - 15 8 - - S 994,8 45 0,0
12.11.2018 00:00:00 7,2 4,8 - 15 8 - - S 994,5 50 0,0
11.11.2018 23:00:00 6,3 4,9 - 8 4 - - SSW 994,3 50 0,0
11.11.2018 22:00:00 7,6 5,7 - 8 4 - - SSW 993,9 40 0,0
11.11.2018 21:00:00 9,0 7,4 - 15 8 - - SSE 993,2 25 0,0
11.11.2018 20:00:00 8,8 7,1 - 15 8 - - SSE 992,9 22 0,0
11.11.2018 19:00:00 9,4 7,3 - 21 11 - - SSE 992,6 20 0,0
11.11.2018 18:00:00 9,5 7,4 - 22 12 - - SSE 992,2 23 0,0
11.11.2018 17:00:00 9,1 7,0 - 16 9 - - SSE 991,8 30 0,0
11.11.2018 16:00:00 8,9 6,6 - 15 8 - - SSE 991,3 30 0,0
11.11.2018 15:00:00 8,9 6,4 - 15 8 - - SSE 991,0 30 0,0
11.11.2018 14:00:00 9,2 6,1 - 13 7 - - SSE 990,9 50 0,0
11.11.2018 13:00:00 9,7 5,6 - 13 7 - - SE 990,7 35 0,0
11.11.2018 12:00:00 9,6 5,4 - 16 9 - - SSE 991,0 45 0,0
11.11.2018 11:00:00 9,0 5,0 - 15 8 - - S 990,7 50 0,0
11.11.2018 10:00:00 7,7 5,5 - 8 4 - - S 990,2 30 0,0
11.11.2018 09:00:00 7,1 5,1 8,2 5 3 - - S 990,1 25 0,0
11.11.2018 08:00:00 6,8 5,5 - 11 6 - - SSE 989,6 27 0,0
11.11.2018 07:00:00 4,5 3,1 - 4 2 - - SW 989,1 29 0,0
11.11.2018 06:00:00 6,7 5,2 - 9 5 - - S 988,5 35 0,0
11.11.2018 05:00:00 7,6 6,5 - 8 4 - - S 988,3 27 0,0
11.11.2018 04:00:00 7,6 6,3 - 9 5 - - SSW 988,1 24 0,0
11.11.2018 03:00:00 8,0 5,6 - 18 10 - - S 987,9 45 0,0

tt = temperature
td = dewpoint
tt -20cm = temperature -20cm
ff = wind speed
fx = gusts
dd = wind direction
ppp = reduced air pressure
vv = visibility
rr = precipitation

Next stations